Wind_Speed
30 27 22 19 19 19 17 14 12 12 11 10 10 11 10 9 7 6 5 3 2 4 6 8 10 12 13 15 16 18 19 20 21 21 21 21 21 20 19 18 16 14 12 11
27 24 21 21 20 18 16 14 14 12 11 11 10 10 10 8 7 6 4 3 1 3 5 7 9 11 13 15 16 18 19 21 21 21 22 22 21 20 19 18 17 15 13 11
23 21 21 20 18 16 14 14 14 13 12 12 11 10 10 8 7 5 5 4 2 2 4 6 8 11 13 14 16 18 19 20 21 21 22 22 21 20 19 18 17 16 14 13
22 22 21 19 17 15 15 15 15 14 13 12 12 10 10 9 7 6 5 4 2 2 3 5 8 10 12 14 16 17 19 20 21 21 22 22 22 21 20 19 18 17 15 13
20 20 19 17 16 16 16 16 15 14 14 12 11 11 10 9 8 6 6 5 3 1 2 5 8 10 12 14 15 17 18 19 20 21 22 22 22 22 21 20 19 18 16 14
20 19 18 17 17 16 16 15 15 14 13 12 11 10 9 9 8 7 6 5 2 0 2 5 8 10 12 14 15 16 17 18 19 20 21 22 22 22 21 21 19 19 17 15
19 18 18 18 17 16 15 15 15 14 13 11 11 10 9 9 9 7 6 5 2 1 2 5 8 10 12 13 15 16 17 18 19 20 21 21 21 21 21 21 20 19 18 17
17 17 16 17 16 15 15 15 15 14 13 12 11 10 10 10 10 8 7 5 3 2 3 5 8 10 12 13 14 15 16 17 18 19 20 21 21 21 21 21 20 19 19 18
16 16 15 16 15 15 15 15 15 15 14 13 11 10 10 11 10 9 7 5 3 2 3 6 8 10 12 13 14 15 16 17 18 18 19 20 20 20 20 20 20 20 19 18
15 15 15 15 15 15 14 14 15 16 15 13 11 10 10 11 10 9 8 6 4 3 4 6 8 10 11 13 13 14 15 16 17 18 19 19 20 20 20 20 20 19 19 19
13 14 14 15 15 14 14 15 16 16 15 14 12 11 12 12 11 10 8 6 5 4 5 6 8 10 11 12 13 14 15 16 17 18 19 19 20 20 20 20 20 19 19 19
11 12 12 13 14 14 14 15 15 16 16 14 12 11 13 12 11 10 9 7 6 5 6 7 8 9 11 12 13 14 15 16 16 17 18 19 20 20 20 20 19 19 19 19
11 12 12 13 14 15 15 15 15 16 16 14 12 11 14 13 12 11 10 8 7 6 7 7 8 9 10 12 13 14 15 16 16 17 19 19 20 20 20 20 19 19 20 20
12 13 14 14 15 16 16 16 16 16 15 14 13 13 15 15 14 13 11 10 9 8 8 8 8 9 10 12 13 14 15 16 17 18 19 20 20 20 20 20 20 19 19 19
14 15 15 16 17 17 17 16 16 16 15 14 13 14 15 16 15 14 12 11 10 9 9 8 9 9 10 12 13 14 15 16 17 18 19 20 20 20 20 20 20 19 19 19
15 16 16 17 17 18 17 16 17 16 15 15 14 14 16 16 15 14 13 12 11 10 10 9 9 10 11 12 13 15 16 16 17 18 19 20 20 20 20 20 20 20 20 19
16 17 17 17 17 17 15 15 17 16 15 15 14 15 17 16 16 15 14 13 12 12 11 10 10 11 11 12 14 15 16 17 18 18 19 20 20 20 21 21 21 21 20 20
16 17 17 17 17 16 13 16 16 16 15 15 15 16 16 17 16 15 15 14 14 13 12 12 12 12 12 13 14 15 16 17 18 18 19 20 20 21 21 21 21 21 21 20
17 18 18 17 17 14 14 15 16 15 14 15 16 16 17 18 17 17 17 16 15 14 14 13 13 13 13 14 15 16 17 17 18 19 20 20 21 22 21 21 21 21 21 20
19 19 19 18 17 14 13 16 16 16 14 16 17 17 18 18 18 18 18 17 17 16 16 15 15 15 15 15 16 17 17 18 18 19 20 21 22 22 22 22 22 22 21 21
20 21 20 20 19 16 16 17 18 17 16 18 19 19 19 19 20 20 19 19 18 18 17 17 16 16 16 17 17 18 18 19 19 20 21 22 23 23 23 23 23 22 22 22
23 23 22 22 21 18 19 19 19 19 20 20 21 21 21 21 21 21 20 20 20 19 19 19 18 18 18 18 18 19 19 20 20 21 22 23 24 24 24 23 23 23 23 22
27 26 26 25 23 22 22 22 22 22 22 22 23 23 23 23 23 22 22 22 22 21 21 20 20 20 20 20 20 20 20 21 21 22 23 24 24 25 25 24 24 24 23 23
30 30 30 29 26 26 26 25 25 25 25 25 25 25 25 25 24 24 24 24 24 23 23 23 22 22 22 21 21 21 21 22 23 23 24 25 25 26 26 25 25 25 24 23
33 34 34 33 30 30 29 29 29 29 28 28 28 27 27 27 26 26 26 26 26 25 25 24 24 24 23 23 23 23 23 23 24 25 26 26 27 27 27 26 26 26 25 24
36 37 38 37 35 36 34 33 33 33 31 31 30 30 29 29 29 29 29 28 27 27 27 26 26 25 25 24 24 24 25 25 26 26 27 28 28 28 28 28 27 26 26 25
Wind_Direction
221 223 224 226 228 236 242 249 255 261 264 270 275 276 273 269 265 266 270 284 326 7 19 16 14 14 13 12 11 10 9 8 7 6 4 3 1 360 358 356 354 349 341 330
217 218 217 221 225 233 242 248 254 259 266 267 269 272 268 259 250 251 254 258 289 4 17 17 16 15 14 13 11 11 10 9 8 7 6 5 3 2 1 360 358 355 351 343
215 213 217 221 226 234 240 246 253 259 263 266 266 263 260 250 241 240 241 246 269 350 13 18 16 14 14 13 12 12 11 10 10 8 7 7 6 5 4 3 2 2 360 355
208 210 215 219 225 231 235 244 250 255 259 262 262 256 251 244 236 233 238 243 263 320 11 16 13 12 13 12 11 11 11 10 10 9 8 8 8 8 8 7 5 5 3 0
206 211 214 217 222 229 234 242 249 254 259 260 262 259 246 240 231 232 234 241 256 299 13 13 11 11 12 11 10 10 9 10 10 10 10 10 10 10 10 9 8 6 4 1
204 209 212 214 220 228 234 243 250 256 258 260 260 258 245 240 234 228 228 236 243 294 9 8 8 9 9 8 8 7 7 8 9 9 9 9 10 11 11 10 9 8 6 4
203 207 212 217 221 228 236 245 251 256 259 261 257 253 246 240 236 229 227 228 231 277 356 4 6 7 6 5 5 5 5 6 6 6 6 7 9 9 10 10 9 8 7 6
204 206 212 215 220 229 240 248 254 259 261 259 252 249 243 239 235 229 224 226 240 280 342 355 1 1 1 1 2 3 3 4 4 4 5 5 6 7 7 8 8 7 6 6
203 206 211 217 225 233 242 249 254 259 260 257 251 243 239 236 233 228 223 231 248 284 327 345 352 355 357 359 1 2 2 2 3 3 4 4 4 4 4 4 5 6 6 5
204 208 213 222 230 239 248 252 256 260 262 257 249 242 234 229 227 226 227 234 245 277 314 334 344 350 353 356 358 359 360 0 1 2 2 3 3 2 2 2 3 4 3 4
208 216 221 229 238 247 255 258 259 260 261 259 250 236 228 226 225 226 230 235 247 276 308 327 338 345 350 353 355 356 357 358 358 359 360 360 0 1 1 1 2 1 0 1
214 225 233 238 245 252 258 260 260 260 260 258 249 228 226 224 224 227 231 238 252 276 301 317 330 340 347 350 352 353 353 353 355 355 356 357 357 358 358 358 359 358 358 358
229 235 243 245 250 256 260 261 262 261 259 255 245 226 226 223 225 228 233 239 252 271 290 306 321 333 342 347 349 350 350 351 352 353 353 354 354 354 354 355 355 355 356 356
244 249 251 254 256 258 260 260 261 261 258 251 240 227 224 223 224 227 233 239 252 267 283 298 313 325 335 341 343 346 348 350 350 351 351 351 352 352 352 351 352 352 353 354
258 259 258 258 260 260 259 259 259 259 256 249 236 229 224 223 223 228 233 240 252 265 278 292 305 317 327 335 339 341 344 346 348 348 349 349 350 351 352 351 350 350 350 350
266 266 264 262 262 261 258 257 259 255 250 244 235 227 226 224 226 230 235 243 253 263 274 285 298 310 320 328 334 337 340 341 343 345 346 347 348 349 350 350 349 348 348 348
270 270 268 268 265 262 257 255 256 253 246 241 233 228 228 228 231 234 238 245 253 261 270 280 292 303 313 321 328 332 335 338 340 342 343 344 345 345 346 347 347 346 345 344
273 272 271 269 265 263 258 254 255 252 247 242 236 233 232 233 236 238 242 247 253 259 268 277 287 296 305 313 320 326 330 333 336 338 339 341 341 342 342 343 344 344 344 343
272 272 272 271 267 263 261 258 254 249 244 243 239 238 237 238 241 243 245 248 254 260 267 275 283 290 299 306 312 319 324 327 330 333 335 337 338 339 339 340 341 341 340 340
268 269 270 270 269 265 260 258 255 251 246 244 243 241 241 242 245 246 248 252 256 261 267 273 279 285 292 299 305 311 317 321 325 329 332 334 334 335 335 336 336 336 336 335
266 266 267 267 267 264 261 258 256 254 246 243 244 245 245 247 249 250 253 256 259 262 266 271 276 282 288 294 300 305 310 315 320 324 327 330 332 333 332 332 331 332 332 331
265 265 264 265 265 261 257 255 255 252 248 246 246 247 248 250 252 254 256 258 259 262 266 270 274 279 284 289 294 300 305 310 315 319 323 326 328 329 329 329 328 328 328 327
263 262 262 261 262 260 256 254 253 252 250 249 249 249 250 252 253 254 256 258 260 262 265 269 273 277 281 285 289 294 300 305 310 314 318 321 324 326 326 326 325 324 324 324
262 261 260 259 257 257 256 254 252 251 250 250 250 251 252 253 253 254 255 257 260 262 265 268 271 274 277 281 285 290 295 301 306 310 314 317 320 322 323 323 322 321 320 320
259 259 259 258 256 254 253 253 252 250 250 250 250 251 252 253 254 255 256 257 259 262 264 266 269 271 274 278 282 287 292 298 302 306 310 313 315 318 319 319 319 319 318 316
259 259 258 257 255 253 251 250 250 250 250 250 250 251 252 253 254 255 256 257 259 260 262 264 266 269 272 276 280 285 290 295 299 303 306 309 311 313 315 316 315 315 314 313
Height
5823 5831 5836 5842 5845 5848 5849 5851 5852 5853 5854 5854 5853 5853 5853 5852 5851 5851 5850 5849 5847 5846 5844 5843 5841 5838 5836 5833 5830 5827 5823 5819 5815 5811 5807 5802 5798 5794 5790 5786 5783 5780 5777 5775
5823 5829 5835 5838 5841 5844 5847 5848 5850 5851 5851 5851 5851 5851 5850 5850 5849 5849 5849 5848 5847 5845 5844 5842 5840 5838 5835 5832 5829 5826 5823 5819 5815 5811 5806 5802 5798 5793 5789 5786 5782 5779 5776 5774
5821 5828 5831 5835 5839 5842 5844 5846 5847 5848 5848 5848 5848 5849 5848 5848 5848 5847 5847 5847 5846 5844 5843 5842 5840 5837 5835 5832 5829 5826 5822 5819 5815 5811 5807 5802 5798 5794 5790 5786 5782 5779 5776 5773
5819 5824 5829 5833 5837 5840 5842 5843 5844 5845 5845 5845 5846 5846 5846 5846 5845 5845 5846 5845 5845 5843 5842 5841 5839 5837 5834 5832 5829 5826 5822 5819 5815 5811 5807 5802 5798 5794 5790 5786 5782 5779 5776 5773
5819 5823 5827 5831 5835 5837 5839 5840 5842 5842 5842 5843 5843 5843 5844 5843 5843 5844 5844 5844 5843 5842 5841 5840 5838 5836 5834 5831 5828 5825 5822 5819 5815 5811 5807 5803 5798 5794 5790 5786 5782 5779 5776 5773
5817 5822 5826 5829 5832 5834 5836 5838 5839 5839 5840 5841 5841 5841 5842 5841 5842 5842 5843 5842 5842 5841 5840 5839 5837 5835 5833 5830 5828 5825 5822 5818 5815 5811 5807 5803 5799 5795 5791 5787 5783 5779 5776 5773
5816 5820 5824 5827 5830 5832 5834 5836 5837 5837 5837 5838 5838 5838 5840 5840 5840 5841 5841 5841 5840 5840 5839 5838 5836 5834 5832 5829 5827 5824 5821 5818 5815 5811 5807 5803 5799 5795 5791 5788 5784 5780 5776 5773
5816 5820 5823 5825 5828 5830 5832 5833 5835 5835 5835 5835 5835 5836 5838 5838 5838 5839 5839 5839 5839 5838 5838 5836 5835 5833 5831 5829 5826 5823 5820 5818 5814 5811 5807 5804 5800 5796 5792 5788 5784 5781 5777 5773
5815 5819 5821 5824 5826 5828 5829 5830 5831 5832 5832 5833 5833 5835 5836 5836 5836 5837 5837 5838 5837 5837 5836 5835 5834 5832 5830 5827 5825 5822 5820 5817 5814 5811 5807 5804 5800 5796 5792 5789 5785 5781 5777 5774
5815 5818 5820 5822 5824 5826 5827 5828 5828 5829 5829 5830 5831 5832 5833 5834 5834 5835 5836 5836 5836 5836 5835 5834 5832 5831 5829 5826 5824 5822 5819 5816 5813 5810 5807 5803 5800 5796 5792 5788 5784 5781 5777 5774
5814 5817 5819 5821 5822 5823 5825 5826 5825 5826 5827 5827 5828 5832 5831 5831 5832 5833 5834 5834 5834 5834 5833 5832 5831 5829 5827 5825 5823 5821 5818 5816 5813 5810 5806 5803 5799 5796 5792 5788 5784 5781 5777 5773
5814 5816 5817 5819 5820 5821 5822 5822 5823 5823 5824 5824 5825 5830 5828 5829 5829 5830 5831 5832 5832 5832 5832 5831 5830 5828 5826 5824 5822 5820 5817 5814 5812 5809 5805 5802 5799 5795 5791 5788 5784 5780 5777 5773
5813 5815 5816 5817 5820 5820 5819 5819 5819 5820 5820 5821 5822 5827 5825 5826 5826 5827 5829 5829 5830 5830 5830 5829 5828 5826 5825 5823 5821 5818 5816 5813 5810 5807 5804 5801 5798 5794 5791 5787 5783 5780 5776 5772
5812 5813 5814 5815 5815 5815 5816 5816 5816 5816 5817 5818 5820 5821 5822 5823 5823 5825 5826 5827 5827 5828 5827 5827 5826 5824 5823 5821 5819 5817 5814 5812 5809 5806 5803 5800 5796 5793 5789 5786 5782 5779 5775 5771
5809 5810 5810 5811 5811 5811 5812 5812 5812 5813 5814 5815 5816 5817 5819 5819 5820 5822 5823 5824 5825 5825 5825 5824 5823 5822 5821 5819 5817 5815 5813 5810 5807 5804 5801 5798 5795 5791 5788 5784 5780 5777 5773 5770
5806 5806 5807 5807 5807 5807 5808 5808 5808 5809 5810 5811 5813 5815 5815 5816 5817 5819 5820 5821 5821 5822 5822 5821 5820 5819 5818 5817 5815 5813 5811 5808 5805 5803 5799 5796 5793 5790 5786 5782 5779 5775 5772 5768
5803 5803 5803 5803 5803 5803 5804 5805 5804 5805 5806 5807 5809 5811 5811 5813 5814 5815 5816 5817 5818 5818 5818 5818 5817 5816 5815 5814 5812 5810 5808 5806 5803 5800 5797 5794 5791 5788 5784 5780 5777 5773 5770 5766
5799 5799 5798 5799 5799 5799 5803 5800 5800 5801 5803 5804 5806 5807 5808 5809 5810 5812 5813 5814 5814 5815 5815 5814 5814 5813 5812 5811 5809 5808 5805 5803 5801 5798 5795 5792 5789 5785 5782 5778 5774 5771 5767 5764
5795 5795 5795 5795 5794 5796 5798 5797 5796 5797 5799 5800 5802 5803 5804 5805 5807 5808 5809 5810 5810 5811 5811 5810 5810 5809 5808 5807 5806 5804 5802 5800 5798 5795 5792 5789 5786 5782 5779 5775 5772 5768 5765 5761
5791 5791 5791 5791 5790 5792 5794 5792 5792 5794 5796 5797 5797 5798 5800 5801 5803 5804 5804 5805 5806 5806 5806 5806 5805 5805 5804 5803 5802 5801 5799 5797 5794 5792 5789 5786 5783 5779 5776 5772 5769 5765 5762 5759
5786 5786 5786 5786 5785 5787 5789 5788 5788 5791 5792 5791 5792 5793 5795 5796 5798 5799 5800 5800 5801 5801 5801 5801 5800 5800 5799 5799 5798 5796 5794 5793 5790 5788 5785 5782 5779 5775 5772 5769 5765 5762 5759 5755
5780 5780 5780 5780 5781 5785 5783 5783 5784 5784 5785 5786 5787 5788 5789 5790 5792 5793 5794 5794 5795 5795 5795 5795 5795 5795 5794 5793 5793 5791 5790 5788 5786 5783 5781 5778 5775 5771 5768 5765 5761 5758 5755 5751
5773 5774 5773 5775 5777 5777 5776 5776 5777 5778 5779 5780 5781 5782 5783 5784 5785 5786 5787 5788 5789 5789 5789 5789 5789 5789 5788 5788 5787 5786 5784 5783 5781 5778 5776 5773 5770 5767 5763 5760 5757 5754 5750 5747
5765 5765 5765 5766 5769 5769 5769 5769 5770 5770 5771 5772 5774 5775 5776 5777 5778 5779 5780 5781 5782 5782 5782 5783 5783 5782 5782 5782 5781 5780 5779 5777 5775 5773 5770 5767 5765 5762 5758 5755 5752 5749 5745 5742
5756 5755 5755 5756 5759 5759 5760 5761 5761 5762 5763 5764 5766 5767 5768 5769 5770 5771 5772 5773 5774 5775 5775 5775 5775 5775 5775 5775 5774 5773 5772 5770 5769 5766 5764 5761 5759 5756 5753 5750 5746 5743 5740 5737
5746 5744 5744 5746 5748 5748 5750 5751 5752 5753 5755 5756 5757 5758 5760 5761 5762 5763 5764 5765 5766 5766 5767 5767 5768 5768 5768 5767 5767 5766 5765 5764 5762 5760 5758 5755 5752 5749 5746 5743 5740 5737 5734 5731